Tracking 29495 objects as of 7-Sep-2024
HD Live streaming from Space Station
objects crossing your sky now

FENGYUN 1C DEB

Track FENGYUN 1C DEB now!
10-day predictions


NORAD ID: 30365
Int'l Code: 1999-025ACC
Perigee: 716.5 km
Apogee: 960.9 km
Inclination: 98.6 °
Period: 101.5 minutes
Semi major axis: 7209 km
RCS: 0.026 m2 (small)
Launch date: May 10, 1999
Source: People's Republic of China (PRC)
Launch site: Taiyaun Space Center, China (TSC)

Note: This is SATELLITE DEBRIS
Your satellite tracking list
Your tracking list is empty




NASA's NSSDC Master Catalog

Two Line Element Set (TLE):
1 30365U 99025ACC 24250.99858383  .00003297  00000-0  14099-2 0  9994
2 30365  98.6026 252.4355 0169498   4.2955  49.8416 14.18180101910768
Source of the keplerian elements: AFSPC